Wind_Speed
14 14 15 15 15 15 15 15 15 14 15 15 15 15 15 15 14 14 15 15 16 17 17 18 18 18 17 17 16 16 17 17 17 17 17 17 17 18 17 17 17 17 18 18 18 17 16 15 14 14 14 14 14 15 15 16 17 17 17 17 17 17 17 17 18 18 17 17 17 17 17 18 18 17 16 16 16 17 17 17 17 17 18 18 18
14 14 14 14 14 14 15 14 14 15 15 15 16 16 16 17 16 16 16 17 17 18 18 18 18 18 17 16 16 16 16 17 17 16 16 16 16 16 16 16 16 16 16 16 16 15 14 14 13 13 14 14 15 16 17 18 18 18 17 17 17 17 17 17 17 17 17 17 17 17 17 17 17 16 16 17 17 17 17 17 17 18 19 19 19
13 14 14 14 14 14 14 14 14 14 15 16 16 16 17 17 17 17 17 17 18 18 18 18 18 17 16 16 16 16 15 16 16 15 15 15 15 15 14 15 15 15 15 14 14 13 13 12 13 13 14 15 16 17 18 18 18 17 17 17 17 17 17 17 17 17 17 17 17 17 17 17 17 17 17 17 17 17 17 18 18 19 19 19 19
13 14 14 13 13 14 14 14 14 14 15 15 16 16 17 17 17 16 16 16 17 17 18 17 17 17 16 16 16 16 15 15 14 14 14 14 14 14 14 14 14 14 13 13 12 12 12 12 13 14 15 16 17 18 17 17 17 17 17 17 17 17 18 17 18 18 18 18 19 18 19 18 18 18 18 18 17 18 18 19 19 19 19 19 19
13 13 13 13 13 13 13 13 13 13 14 15 15 15 15 16 17 16 15 15 16 16 16 16 16 16 16 15 15 15 14 14 13 13 13 13 13 13 13 13 13 13 13 12 11 11 12 13 14 15 16 17 17 17 17 17 17 17 18 18 18 18 18 19 19 19 20 20 20 20 20 19 19 18 18 18 18 18 18 19 19 19 19 19 19
12 13 13 12 12 12 12 12 12 13 13 14 15 14 14 15 15 15 15 14 14 15 15 15 15 15 15 15 15 14 13 13 12 12 12 11 11 12 12 13 13 12 12 11 11 11 12 13 14 15 16 16 16 16 16 17 17 18 18 19 19 19 20 20 21 21 21 21 21 20 20 19 19 18 18 18 18 18 19 19 20 19 19 19 20
12 12 13 12 12 12 12 11 11 12 13 13 14 13 14 14 14 14 14 14 13 13 14 15 15 14 14 14 14 14 13 12 12 11 11 11 11 11 12 12 12 12 11 10 10 11 12 13 14 15 15 16 16 16 16 17 18 19 20 20 21 21 22 22 21 21 21 21 20 19 19 19 18 18 18 19 19 19 19 20 20 20 20 21 22
11 11 12 12 11 11 11 11 11 11 12 12 12 12 12 12 13 13 13 13 12 12 13 13 14 14 14 13 13 13 12 12 12 11 11 11 11 11 11 11 12 11 10 10 11 12 13 13 14 15 16 16 15 16 17 18 19 20 21 22 22 23 23 22 21 21 20 20 19 19 19 19 20 20 20 20 21 19 19 20 21 21 21 22 23
10 10 11 11 11 11 11 10 10 11 11 10 10 10 11 11 11 12 12 12 11 11 12 12 12 12 13 13 13 13 12 12 11 11 10 11 11 11 11 11 11 11 10 10 11 12 13 14 15 15 16 15 15 16 17 18 19 21 22 23 23 23 22 21 21 20 20 20 20 20 20 20 21 20 20 21 21 21 21 22 22 22 23 23 24
9 9 9 10 9 9 9 9 10 10 10 9 9 9 9 9 10 11 10 10 10 11 11 10 10 11 11 12 12 12 12 11 10 10 10 10 11 11 11 11 11 11 11 11 12 12 14 14 15 15 15 15 16 17 18 19 20 21 22 23 22 22 21 20 20 20 19 19 20 21 21 21 21 21 21 21 22 23 23 23 23 23 23 24 24
8 8 8 8 8 8 8 8 8 9 9 9 8 8 8 9 9 9 9 9 9 10 9 9 9 9 10 11 11 11 11 11 10 10 10 10 11 11 11 11 11 11 11 11 12 13 14 15 14 14 15 15 16 17 18 19 20 21 22 22 21 21 21 20 20 20 20 19 20 21 21 21 22 22 22 23 23 24 23 23 23 23 23 24 24
8 8 7 7 7 7 7 7 7 8 8 8 8 8 8 8 7 8 8 8 8 8 8 7 7 8 9 9 10 10 10 10 9 9 9 10 10 11 11 11 10 11 12 11 12 13 15 14 14 14 14 15 16 17 18 19 20 21 22 22 22 21 21 21 21 21 21 20 21 21 22 22 22 23 23 23 23 24 23 23 24 24 24 24 25
9 8 7 7 7 7 7 7 8 8 8 8 8 7 7 6 6 6 7 7 7 7 7 6 6 7 8 8 8 9 9 9 9 9 9 10 11 11 11 11 10 11 11 11 13 14 14 14 13 13 14 15 16 17 19 20 21 21 22 22 22 22 21 21 21 21 22 22 22 22 22 23 23 23 23 23 23 24 24 24 24 24 25 25 25
9 8 8 7 7 8 8 8 8 8 8 8 7 7 7 6 6 5 6 6 6 6 7 6 6 6 7 7 8 8 9 9 9 9 10 10 11 12 12 11 11 11 11 12 13 13 13 13 12 13 13 14 16 18 19 20 20 21 21 21 21 21 21 21 22 22 22 22 23 23 23 24 24 24 24 24 24 24 24 24 24 25 25 26 26
9 8 8 8 8 9 9 9 9 9 9 8 8 8 7 7 6 6 6 5 5 5 6 6 6 7 7 7 7 8 8 9 9 10 10 11 11 12 12 12 11 10 11 13 13 12 12 12 12 12 13 15 17 19 19 19 20 20 20 20 20 20 20 21 22 22 23 23 24 24 24 24 24 24 24 24 25 25 25 26 26 26 27 28 28
10 9 9 9 9 10 9 9 9 9 9 9 9 9 9 8 7 7 7 6 6 6 6 5 6 7 8 8 8 8 9 10 10 11 11 12 12 11 12 11 10 11 12 13 12 11 11 11 11 12 14 16 18 18 18 18 19 19 20 20 19 19 20 21 22 23 24 24 25 25 25 25 25 25 25 25 26 27 27 28 28 28 29 30 31
10 10 10 10 10 10 9 9 10 9 9 9 9 9 9 9 8 8 8 7 7 7 7 6 6 7 8 9 9 9 10 10 11 11 11 12 12 11 11 11 11 12 13 12 11 10 10 11 11 12 14 16 17 17 17 17 18 18 19 19 19 19 20 21 23 23 24 25 25 25 25 25 25 26 26 27 28 29 30 30 31 31 31 32 33
10 10 10 10 10 10 9 9 10 10 9 10 10 10 10 10 9 9 8 8 7 7 8 8 7 7 8 9 9 9 10 10 11 12 12 12 11 11 11 12 13 14 13 12 10 10 10 11 12 13 15 16 16 16 16 17 17 18 18 18 18 20 21 22 23 24 24 25 25 25 26 26 26 27 27 28 29 31 32 33 34 34 33 33 34
9 10 10 10 10 10 9 9 10 10 10 10 10 10 10 10 9 9 8 8 8 8 8 9 8 8 8 9 9 10 10 11 11 12 12 12 11 11 12 13 14 14 13 11 10 10 10 11 12 13 14 15 15 16 16 16 17 17 17 18 18 20 21 22 23 24 24 25 25 26 26 27 27 28 29 30 31 32 33 34 34 35 35 34 35
10 11 11 10 10 10 10 10 10 10 11 11 11 11 10 10 9 8 8 8 9 9 9 9 9 9 9 9 10 10 11 11 11 11 12 12 11 12 12 13 14 13 12 11 10 10 10 11 12 13 14 14 15 15 15 15 16 16 17 18 19 20 21 23 23 24 24 25 25 26 27 27 28 29 30 31 33 33 34 34 35 35 35 35 36
12 12 11 11 11 10 10 10 11 11 11 11 11 10 10 9 8 8 9 9 10 9 9 9 9 9 10 10 10 11 11 11 11 11 11 11 12 13 13 14 13 12 11 11 10 11 11 11 11 12 12 13 13 13 13 14 15 15 16 17 18 20 22 23 23 23 24 25 26 26 27 28 29 30 31 32 33 33 34 35 35 36 37 36 36
13 12 12 11 11 11 11 11 11 11 11 11 11 10 9 9 9 9 10 10 10 9 8 8 9 10 10 11 11 11 11 11 11 11 11 11 12 13 14 14 14 13 12 11 11 11 11 10 10 10 11 12 11 11 12 13 13 14 15 17 19 21 22 22 22 23 24 25 26 27 27 28 29 30 31 32 33 33 34 35 36 36 37 37 37
14 13 12 12 11 11 12 12 12 12 11 11 11 10 10 10 10 9 9 10 9 9 9 9 10 10 11 11 11 11 11 11 12 11 11 11 12 13 14 14 14 13 12 12 11 11 11 10 9 9 10 10 10 10 10 11 12 13 15 17 19 20 20 20 21 22 24 25 26 27 28 28 29 30 31 32 32 33 34 35 36 36 37 38 38
15 14 13 12 12 11 12 12 12 12 11 11 11 12 12 11 11 10 9 9 9 9 9 10 11 11 12 12 12 12 11 11 12 12 12 12 13 13 14 15 14 13 12 12 11 11 10 9 8 8 8 8 8 8 9 9 10 12 14 17 18 18 18 18 19 21 24 26 27 27 28 28 29 30 31 31 32 33 34 35 35 36 37 38 38
16 14 13 13 12 12 12 13 13 12 12 12 12 13 13 12 11 10 9 9 9 10 10 10 11 12 12 12 12 12 12 11 11 12 12 12 13 14 14 14 14 14 12 12 11 10 9 8 8 7 6 6 7 8 8 8 8 10 13 16 16 16 16 16 17 20 24 26 27 27 28 28 28 29 30 31 32 33 33 34 35 36 36 36 36
15 13 13 12 13 13 13 13 13 13 13 13 13 12 12 12 11 10 9 9 9 10 10 11 11 12 12 12 12 12 12 11 11 11 12 12 13 14 14 14 14 14 13 11 10 9 8 8 7 6 5 5 6 7 7 6 7 9 12 14 15 15 16 16 16 21 24 26 26 27 28 28 28 28 29 30 32 32 33 34 35 35 35 35 35
13 13 12 13 13 13 13 13 13 14 13 13 13 13 12 11 11 11 10 10 9 10 11 11 12 12 12 12 12 12 12 12 12 11 11 12 13 13 14 14 14 14 13 12 10 9 8 7 6 5 4 4 5 5 5 5 6 8 11 13 14 15 16 15 16 20 24 25 26 27 28 28 28 28 29 30 31 32 33 34 34 34 34 34 35
12 12 13 13 14 14 13 13 13 13 13 13 14 13 13 12 11 11 11 10 10 10 11 11 12 12 13 13 13 12 12 12 12 12 11 11 12 13 13 13 13 13 13 12 11 9 7 6 5 4 3 3 4 4 4 4 5 8 10 12 14 15 15 16 17 19 23 25 26 27 28 28 28 28 28 29 30 31 32 32 33 33 33 34 35
12 12 12 13 14 14 13 13 13 13 13 13 14 14 14 13 12 11 11 10 10 11 11 11 11 12 12 13 13 13 13 12 12 12 11 11 11 12 12 12 13 13 12 12 12 10 8 6 5 3 2 2 2 2 3 4 5 7 10 12 13 14 15 16 17 19 22 24 26 27 27 28 27 27 28 29 29 30 30 31 32 32 33 34 34
13 12 12 13 14 13 13 13 13 13 13 14 14 14 14 13 13 12 11 11 11 11 11 11 11 11 11 12 12 13 14 13 12 11 11 11 11 11 11 12 12 12 13 13 12 11 9 7 5 3 2 0 0 1 2 3 5 7 9 11 13 14 15 16 18 19 21 23 25 26 27 27 27 27 27 27 27 28 29 30 31 32 33 34 34
13 13 13 14 13 13 12 12 13 13 13 14 14 14 14 14 13 12 12 11 11 11 11 11 11 11 11 11 12 13 13 14 13 12 11 10 10 10 11 11 11 12 12 13 12 11 10 8 7 5 3 2 2 2 3 4 5 7 8 10 12 13 14 16 18 19 20 22 23 25 26 26 26 26 26 26 26 27 28 29 30 31 33 33 34
14 14 14 14 13 12 11 11 12 13 13 14 14 14 14 14 13 13 13 12 12 12 11 11 11 10 10 10 11 12 13 13 14 13 12 11 11 10 10 11 11 11 11 11 11 12 11 10 9 7 5 4 4 4 4 5 6 8 8 9 11 13 14 15 17 19 19 20 22 23 25 25 26 26 26 26 26 27 28 29 30 31 32 33 34
14 14 14 14 13 11 10 10 11 12 13 14 14 14 15 14 14 14 13 13 12 12 11 11 10 9 9 9 10 11 12 13 14 14 13 12 11 11 11 10 10 10 10 10 11 11 11 11 11 9 8 7 6 6 6 6 7 8 8 9 11 13 14 15 17 18 19 19 20 22 23 24 25 26 26 27 27 27 28 29 30 31 31 32 33
15 15 14 14 12 11 9 8 9 11 13 14 15 15 15 15 15 15 14 13 12 12 11 10 9 8 8 8 8 9 10 11 13 13 13 13 13 12 12 11 11 10 10 11 11 11 11 12 12 12 11 9 8 8 8 8 8 8 8 9 11 13 14 15 16 17 18 18 19 21 22 24 25 26 26 26 27 27 28 28 29 30 31 32 33
16 16 15 15 13 11 9 8 8 9 12 14 15 16 16 16 16 15 14 13 12 12 11 10 9 8 7 6 6 7 8 9 10 12 13 14 14 13 13 13 12 12 12 11 11 11 12 13 13 13 13 12 10 10 10 10 10 10 8 9 11 13 14 15 16 16 17 18 18 20 22 23 25 26 26 26 27 27 27 27 28 29 30 31 33
17 17 17 16 14 12 10 9 8 10 12 15 16 16 17 17 16 15 15 14 13 12 11 10 9 8 7 7 6 5 5 6 8 9 11 13 14 14 14 14 14 14 13 13 13 13 13 13 14 14 15 14 13 13 12 12 12 12 10 10 11 12 13 14 15 16 17 18 18 19 21 23 25 25 25 26 27 26 25 26 27 29 30 31 32
18 19 18 17 15 13 12 11 10 11 13 15 17 17 17 17 16 15 15 14 13 12 11 10 9 9 8 7 6 6 6 6 7 7 8 10 11 13 14 15 16 15 15 15 15 15 15 15 15 15 16 16 15 15 14 13 13 14 13 12 13 14 15 15 16 16 17 18 19 19 21 22 24 24 24 25 26 25 24 25 26 28 29 30 31
20 20 19 19 17 16 15 13 12 12 13 16 18 18 18 18 17 16 16 15 14 13 12 11 10 9 9 8 7 7 7 7 7 7 7 7 8 10 11 13 15 16 17 18 17 17 17 17 17 17 17 17 16 16 16 16 15 15 16 15 15 15 17 18 19 18 18 19 19 20 21 22 23 24 24 25 24 24 24 25 25 26 28 29 30
22 21 21 20 20 19 17 16 14 13 13 15 18 19 19 19 18 18 17 16 15 14 13 12 11 10 9 8 8 8 9 8 8 8 7 7 8 8 9 10 11 13 15 18 19 19 20 20 20 19 19 18 18 17 17 17 17 17 18 18 18 18 17 19 21 21 20 19 20 20 21 23 24 24 24 24 23 24 24 24 24 25 27 28 29
24 23 23 22 22 22 20 18 17 16 14 15 17 19 20 21 20 20 19 18 17 16 15 14 13 12 11 9 9 10 10 10 9 9 9 9 9 10 10 10 10 11 12 14 16 18 20 21 22 22 21 21 21 19 18 18 19 19 19 19 20 21 20 20 21 23 23 21 21 22 22 24 25 24 24 24 23 24 24 24 24 25 26 27 28
27 26 25 24 24 23 22 21 20 19 17 16 17 19 20 21 22 22 21 20 19 18 17 16 15 13 12 11 11 11 11 10 10 10 10 11 11 12 12 12 11 11 12 13 13 15 17 20 22 23 23 23 23 22 20 20 20 20 20 20 21 22 23 22 22 24 25 24 23 23 24 24 25 26 25 25 25 25 25 24 24 24 25 26 28
29 29 28 27 26 25 24 24 23 21 20 19 19 19 21 22 23 23 23 22 22 21 19 18 17 15 14 14 13 12 12 11 11 11 11 12 13 14 14 14 13 13 13 13 13 14 14 16 19 21 22 23 24 23 23 22 22 21 21 21 22 23 24 24 24 24 25 26 25 25 25 25 26 27 27 27 26 26 26 25 24 24 24 26 27
31 30 30 29 28 27 27 26 25 23 22 21 21 21 21 22 23 24 25 25 24 23 22 20 19 18 17 16 14 13 13 13 13 12 12 13 14 15 16 16 15 15 14 14 15 15 15 15 17 18 19 21 23 22 22 23 24 23 23 22 22 23 24 25 25 25 26 27 27 26 26 26 26 27 28 28 28 27 27 26 25 24 23 24 26
32 32 31 30 30 29 29 28 27 25 24 23 23 23 22 22 23 24 26 26 26 25 24 22 21 20 19 17 16 14 13 13 14 14 14 14 15 16 16 17 17 16 16 16 17 17 16 16 16 17 18 19 20 20 20 21 24 25 25 24 23 23 24 24 25 25 26 27 27 27 26 26 27 28 29 29 29 28 28 27 26 24 23 23 25
34 33 32 32 31 31 30 29 28 27 26 26 25 25 24 24 24 25 26 27 27 27 26 25 24 22 21 19 17 16 15 15 14 15 16 17 17 17 17 17 17 17 17 17 18 18 18 17 17 17 19 19 19 20 19 18 20 24 25 25 25 24 24 24 24 24 25 26 26 26 26 27 28 28 29 29 29 28 28 27 26 25 23 23 24
35 34 33 33 33 32 31 31 30 29 28 28 27 27 27 27 27 26 26 27 28 28 27 27 26 25 23 22 20 19 18 17 16 16 17 18 19 19 18 17 17 18 17 17 18 19 19 19 18 18 19 19 18 19 20 18 18 20 22 23 24 25 25 24 24 25 24 25 25 25 26 28 28 29 29 29 29 28 28 27 27 25 24 23 23
37 36 36 35 35 34 33 32 32 30 29 29 29 29 28 29 29 29 28 27 27 27 28 28 28 28 27 25 24 22 21 20 20 19 19 20 21 20 19 19 19 19 18 18 18 18 19 19 19 19 20 20 19 19 20 19 19 20 20 21 23 24 24 23 24 25 25 24 25 25 25 27 28 29 29 29 29 28 28 28 27 26 25 24 23
39 38 38 38 37 36 36 35 33 32 31 31 31 30 30 31 31 31 29 28 27 27 27 28 29 30 30 29 28 27 26 25 24 24 23 22 22 21 21 21 21 21 20 20 20 19 19 19 19 19 20 21 21 20 21 21 20 20 20 20 22 24 23 22 24 26 25 24 24 24 25 26 28 28 29 29 29 29 29 29 28 27 26 25 24
40 39 39 39 39 39 38 36 34 33 32 33 33 32 32 33 33 32 30 29 28 27 27 28 28 29 29 30 31 30 29 29 29 29 28 26 23 22 23 23 23 22 22 24 23 22 21 21 20 20 20 21 22 21 22 22 22 21 21 21 22 23 22 21 23 25 25 24 24 25 25 25 27 28 29 29 30 30 30 30 29 28 27 26 25
40 40 39 39 39 39 38 37 36 34 34 35 35 34 34 34 34 33 32 30 29 28 28 28 28 28 29 30 31 32 32 32 33 33 32 30 27 25 25 25 25 23 24 26 26 24 23 23 22 22 21 22 22 22 22 23 23 23 23 22 23 23 22 22 23 24 24 25 26 26 25 26 27 28 29 30 31 31 31 31 30 29 28 27 26
39 39 39 39 38 38 38 37 37 36 36 36 37 36 36 36 36 35 34 32 30 29 28 28 28 29 29 31 32 32 33 34 35 36 36 35 32 29 27 26 24 24 26 28 26 24 24 24 23 24 23 23 24 23 24 25 25 24 24 24 24 23 23 23 24 24 24 25 26 27 26 26 27 29 29 30 31 32 32 32 31 30 29 28 27
Wind_Direction
102 102 103 103 104 103 100 97 93 91 90 91 93 95 96 96 96 96 97 99 99 98 98 97 96 96 96 97 97 97 97 98 97 98 98 98 99 99 99 100 100 100 100 101 100 98 94 91 91 91 91 91 92 92 92 92 93 92 91 90 88 86 84 81 78 76 73 71 68 65 63 61 59 57 54 50 46 44 40 37 36 34 32 30 28
101 102 103 103 104 103 100 97 93 90 89 89 89 91 93 94 94 95 96 97 97 98 98 97 97 98 98 97 96 95 95 96 97 98 98 98 98 98 99 99 99 99 100 101 100 98 95 92 92 92 92 92 92 93 94 95 95 93 91 89 87 84 82 80 78 75 72 69 67 64 62 59 56 52 49 46 44 42 39 37 35 32 30 28 26
100 102 104 105 105 104 102 100 96 92 89 88 89 91 93 94 94 94 96 98 98 99 99 99 99 99 99 98 97 96 96 97 97 98 99 99 98 98 98 99 99 100 100 100 100 98 95 94 94 94 94 94 96 97 97 96 94 92 89 87 85 82 81 79 78 75 72 69 66 63 60 56 53 49 46 44 43 40 38 35 32 30 28 27 26
101 104 105 106 107 107 105 103 98 93 90 89 90 91 94 96 96 96 96 97 98 99 98 99 99 100 100 99 99 98 98 99 99 98 98 99 100 100 101 101 100 101 102 102 100 98 96 95 95 95 97 99 100 99 98 95 92 89 86 85 83 81 80 78 76 74 71 68 65 61 57 54 51 47 45 42 40 37 35 32 29 28 27 26 26
104 105 106 108 111 112 111 107 102 98 94 92 91 92 94 96 97 97 98 98 98 99 100 100 100 100 101 101 100 99 99 99 99 98 98 100 102 102 103 102 102 103 103 102 101 99 98 97 97 98 101 102 101 98 95 92 89 87 85 83 81 80 78 76 74 72 69 66 62 58 54 51 48 45 43 40 37 35 32 29 28 28 26 25 23
109 109 109 110 113 118 119 117 112 107 102 97 95 94 95 97 99 100 100 101 101 102 103 103 102 102 102 102 101 100 100 100 99 99 100 101 103 104 105 104 104 104 103 102 101 100 100 100 101 103 105 104 101 97 93 90 88 86 84 83 81 79 77 74 72 69 65 61 56 53 50 47 45 42 40 38 35 32 31 30 29 28 25 21 18
113 113 113 112 115 120 124 126 123 117 111 105 101 99 98 98 100 102 102 103 103 105 105 106 105 105 104 103 103 102 102 102 102 103 104 103 102 102 104 107 107 106 104 103 103 103 104 104 108 110 108 104 99 94 91 88 87 85 84 82 79 76 73 70 68 64 60 56 53 50 47 44 41 39 38 36 33 33 33 31 29 26 23 19 16
117 117 117 117 118 121 124 129 129 126 120 114 110 107 104 102 101 101 101 101 103 105 105 106 106 107 107 107 106 104 104 105 106 107 103 99 97 98 101 105 107 107 106 106 107 107 107 110 113 112 107 100 94 89 87 85 85 84 82 79 75 72 69 67 64 61 58 55 51 48 45 43 40 40 39 37 35 35 34 30 28 26 23 20 18
122 121 122 123 123 123 124 126 128 129 127 123 120 117 113 110 105 101 99 100 102 104 104 106 108 110 110 110 109 108 106 106 107 105 99 95 94 97 101 106 109 108 107 108 107 106 108 112 112 108 101 94 88 83 81 81 81 80 78 75 72 70 68 66 64 60 57 54 50 46 44 42 40 40 38 36 35 35 34 31 30 28 25 22 20
128 127 128 127 127 128 127 126 127 128 129 130 130 127 123 118 112 109 107 107 107 105 105 108 112 115 114 113 113 111 111 110 110 106 101 97 95 99 104 109 110 107 106 106 105 104 108 110 107 102 96 88 83 80 79 79 79 78 76 74 72 70 68 66 63 59 55 52 48 44 42 41 40 39 37 36 36 36 35 33 31 28 25 23 21
132 131 131 130 131 133 134 133 132 132 134 137 140 139 135 127 121 118 117 114 110 107 108 113 118 119 119 119 118 116 116 117 115 111 105 99 97 100 105 108 107 103 104 104 103 104 107 107 104 98 91 85 81 80 80 80 79 77 75 73 70 68 66 63 59 55 51 48 44 42 42 41 40 39 38 37 37 36 35 33 31 29 26 24 23
133 132 132 130 132 138 140 141 143 144 146 150 151 149 142 133 127 122 118 116 113 111 113 118 121 120 119 119 119 118 118 120 118 113 107 99 98 102 105 106 102 100 102 102 103 107 108 106 102 95 88 83 82 82 82 81 79 76 73 70 67 64 60 57 54 52 50 47 44 43 43 42 41 40 39 38 37 36 35 34 32 31 29 27 26
133 131 130 129 132 137 141 143 146 149 154 158 158 156 148 137 130 123 118 119 118 118 121 123 120 118 118 118 118 118 118 120 118 113 107 101 101 103 104 104 102 99 101 104 108 111 109 105 100 92 86 82 83 84 83 80 77 74 71 68 64 60 56 53 51 50 49 48 46 45 44 43 42 41 41 40 39 38 37 36 35 34 33 32 30
132 131 130 131 134 134 134 136 138 143 150 154 154 156 151 141 137 131 123 122 123 123 126 127 122 115 114 114 116 117 118 119 117 113 109 104 104 105 105 105 103 100 103 110 114 113 108 104 98 91 85 83 84 84 83 80 76 72 68 65 61 56 53 52 51 50 49 48 47 46 45 44 43 43 43 43 42 40 39 38 37 37 36 36 35
132 133 133 134 133 130 130 132 134 138 143 143 146 147 140 134 136 135 129 129 132 128 124 126 126 120 114 113 116 119 119 118 118 116 112 108 106 106 106 106 103 102 109 115 116 112 106 101 95 89 85 85 87 86 83 79 74 69 65 64 61 56 53 53 52 51 50 49 48 47 46 46 46 47 46 46 44 43 42 40 39 39 40 39 37
135 137 137 136 134 130 133 137 137 137 137 137 138 135 128 125 128 130 131 135 139 134 123 121 123 119 118 118 120 123 121 120 121 119 114 112 110 107 106 105 103 108 117 119 115 110 104 96 89 86 87 89 88 87 82 77 72 68 65 63 61 57 55 55 54 53 52 51 50 49 48 49 49 49 49 48 46 45 43 42 40 40 41 39 37
142 143 141 138 135 133 138 141 139 137 137 136 133 126 121 120 122 126 130 134 138 133 123 122 123 118 118 121 123 125 122 122 123 119 116 115 112 109 107 105 110 118 123 121 115 110 101 92 88 88 90 91 89 86 81 75 71 68 66 63 60 58 57 57 56 55 54 53 52 51 51 51 50 49 48 47 46 45 43 41 39 39 39 37 35
149 146 143 139 135 136 142 143 140 141 141 137 131 125 121 120 121 123 127 131 134 129 124 126 128 122 121 122 123 125 123 123 124 121 119 118 114 112 108 110 119 125 126 122 117 110 101 94 93 93 93 92 89 84 78 74 70 68 66 63 60 58 58 58 58 57 56 55 54 53 52 50 49 48 46 45 43 42 41 40 38 37 36 35 33
155 151 146 141 139 141 145 143 142 144 143 138 132 129 125 123 123 122 126 131 132 130 129 130 130 126 125 124 124 125 125 125 127 125 123 121 119 116 113 118 126 128 126 123 118 111 103 99 97 97 97 93 87 81 76 72 68 66 64 61 60 59 59 59 58 57 56 55 53 52 50 48 47 45 43 42 40 40 39 38 36 34 33 31 30
162 157 151 147 146 147 149 148 149 150 145 140 137 134 130 128 128 126 129 133 132 133 132 131 130 128 126 125 126 126 126 127 128 126 125 123 122 120 119 123 128 128 126 123 116 110 106 104 102 100 97 91 84 79 73 69 66 64 61 58 58 58 58 58 56 55 53 52 50 49 47 45 44 42 40 39 38 37 36 35 34 32 30 29 27
168 162 157 154 152 151 152 153 155 154 150 146 142 140 136 133 134 133 133 133 131 133 134 132 130 127 125 127 128 127 126 128 128 125 124 123 125 125 124 128 130 129 125 121 116 113 112 109 107 105 99 92 86 79 73 69 67 64 60 57 57 57 56 54 53 52 50 49 47 45 43 42 40 39 38 37 36 34 33 32 31 30 28 26 24
172 165 161 159 156 153 154 156 158 157 156 154 149 147 144 139 139 137 136 134 133 136 137 134 129 126 128 131 131 129 129 131 131 128 126 126 129 131 131 132 133 130 127 125 122 120 119 118 116 111 103 95 89 81 73 69 68 66 62 58 57 54 51 50 50 50 49 47 44 42 40 38 37 36 36 35 34 32 31 30 29 28 26 24 22
175 167 163 162 159 156 156 158 159 159 160 160 154 151 149 145 143 142 140 139 138 140 140 135 130 129 133 135 134 132 135 137 137 134 132 132 135 137 137 137 135 133 132 131 131 131 131 130 123 111 100 95 89 79 70 66 65 65 62 58 55 51 47 47 47 49 49 46 43 40 37 35 34 33 33 32 31 31 30 29 28 27 25 23 21
178 169 165 164 162 161 160 160 162 161 163 162 156 151 149 148 146 146 147 145 142 143 142 138 135 135 138 140 139 138 140 142 141 137 136 138 140 143 143 141 139 140 141 138 137 136 136 132 120 106 99 96 91 81 70 63 61 60 60 57 53 49 44 43 44 48 48 45 42 39 36 33 31 30 30 29 29 28 27 27 26 25 24 22 19
177 169 166 166 165 164 162 163 163 163 164 161 155 152 151 150 149 149 151 151 147 145 143 140 138 138 140 143 143 142 143 145 142 139 140 143 145 147 147 146 147 150 150 144 137 133 131 128 120 110 104 98 90 80 69 61 56 56 57 55 50 46 42 39 42 47 47 44 41 37 35 32 30 28 27 27 26 25 24 24 24 23 22 20 18
176 169 168 168 167 165 164 163 162 161 162 159 155 154 154 153 152 152 153 154 150 147 145 143 141 140 143 145 146 146 147 147 143 140 144 147 149 151 151 153 156 159 157 149 139 134 132 130 127 119 109 97 87 78 70 61 49 49 53 52 46 42 38 36 40 46 47 43 40 36 33 31 28 26 25 24 24 23 21 21 21 21 20 18 16
179 172 171 171 169 167 164 163 161 161 162 160 157 157 157 157 157 155 154 154 152 150 149 147 145 145 146 148 150 151 153 151 146 144 148 151 153 155 157 161 164 166 165 157 146 142 139 135 132 128 120 109 97 87 76 60 41 40 47 47 43 38 34 32 36 44 45 42 39 35 31 29 26 23 22 22 22 20 19 19 19 18 17 16 14
186 179 174 172 170 168 166 164 164 165 165 164 163 161 161 161 161 158 155 155 153 152 151 150 150 150 151 152 154 157 159 156 151 150 153 154 157 160 163 167 170 172 172 166 159 156 151 145 143 138 132 122 109 96 77 52 31 31 40 42 37 33 30 29 31 40 43 40 37 33 30 27 24 21 20 20 19 18 17 16 16 15 14 14 12
195 186 176 173 173 170 169 168 167 169 169 168 167 166 165 165 165 161 158 159 157 153 153 154 154 155 156 157 159 161 163 161 158 158 158 158 162 166 170 172 174 178 180 179 177 174 169 165 165 158 143 124 112 92 60 33 16 18 30 34 30 26 25 23 25 34 39 37 35 31 28 25 22 19 18 18 17 15 14 14 13 12 12 12 10
197 190 180 176 176 174 173 173 173 173 173 172 172 171 169 169 168 164 161 161 160 156 155 157 158 161 162 163 165 165 166 166 166 167 165 161 164 170 175 179 181 184 188 190 190 188 186 186 189 195 201 187 50 36 22 2 353 0 17 25 22 19 18 16 19 26 32 34 32 29 26 23 20 18 16 16 15 13 12 11 11 11 10 10 8
198 192 183 179 179 179 179 179 179 179 178 176 175 175 174 173 170 167 163 163 162 160 160 162 164 168 170 170 171 171 171 171 173 175 174 169 169 173 179 186 191 193 196 198 199 199 201 203 206 218 235 266 299 326 332 328 331 341 1 15 11 8 10 10 13 20 25 30 30 27 23 20 18 17 15 14 13 11 10 10 9 9 9 7 6
202 195 187 183 182 183 185 185 185 185 184 182 180 179 178 176 173 170 168 166 165 163 164 166 170 174 178 178 177 177 178 179 180 181 182 179 177 179 184 191 198 203 206 208 209 210 212 215 219 229 243 260 281 297 301 308 321 329 344 359 357 358 2 3 8 13 17 24 27 24 20 17 15 15 13 12 12 10 9 9 8 7 6 5 5
205 200 193 188 185 185 188 190 190 191 190 187 185 183 181 179 176 175 174 171 169 167 167 170 173 178 184 187 188 186 186 188 188 189 190 189 188 189 192 195 200 208 214 218 222 222 224 226 228 235 245 255 268 281 289 298 307 317 332 344 342 345 352 357 2 6 8 16 22 20 16 13 12 11 10 10 9 9 8 8 7 5 4 4 3
204 204 200 194 189 188 190 193 195 195 194 192 189 186 184 182 180 180 180 178 174 172 171 170 173 179 187 193 198 200 200 200 200 199 199 199 200 201 203 204 206 211 216 224 230 233 235 238 239 242 248 254 262 271 281 291 295 306 327 335 330 332 341 348 353 357 360 7 15 15 11 8 6 6 6 7 6 6 7 7 5 4 2 2 2
205 206 205 199 194 192 191 194 197 198 196 195 193 191 187 186 185 184 184 184 181 177 173 171 173 178 186 193 198 206 213 217 216 215 214 212 212 214 215 214 216 218 221 226 233 238 242 246 248 249 253 257 261 266 274 282 289 299 316 323 321 324 330 337 343 346 350 357 5 8 5 2 360 359 1 2 3 3 4 4 3 2 1 1 1
208 209 208 204 200 197 194 194 197 199 198 197 196 195 193 192 191 190 189 188 187 183 178 176 179 184 190 197 200 207 217 224 227 229 229 228 229 230 230 229 228 228 229 232 235 240 245 250 253 255 257 259 262 266 270 276 284 293 302 303 306 313 320 326 332 337 342 347 355 358 357 355 353 352 354 357 359 360 0 2 2 1 0 360 360
211 211 209 207 205 203 202 200 198 198 199 199 199 199 199 200 198 195 194 193 191 188 186 186 189 193 199 206 209 214 223 230 235 240 242 241 243 243 244 244 244 242 240 241 242 243 247 251 254 257 260 262 264 267 270 274 280 287 291 291 293 302 310 315 321 329 335 339 344 349 349 348 346 346 349 352 354 355 357 359 0 360 359 359 359
213 212 209 207 207 208 210 209 206 202 200 202 203 203 204 204 203 201 199 197 196 195 194 196 199 202 207 212 214 224 235 242 247 250 254 256 257 257 256 256 255 253 251 251 250 250 251 254 257 260 263 265 267 268 271 274 277 282 286 288 288 293 301 308 312 319 327 331 336 340 341 340 340 341 344 346 348 350 353 356 358 358 358 358 358
214 213 211 209 207 210 214 215 215 213 207 205 207 208 208 208 207 205 203 202 201 201 202 203 205 208 212 216 220 231 243 253 260 265 268 271 273 272 271 269 266 262 259 258 257 256 256 258 260 262 264 267 271 272 272 274 276 278 282 287 290 291 294 299 305 311 319 324 328 332 333 333 333 335 337 340 343 346 350 353 355 356 356 356 356
216 216 215 212 211 212 214 216 220 221 217 213 212 211 211 211 210 208 208 207 206 206 208 208 210 212 215 219 224 233 244 254 264 272 276 277 278 277 277 277 275 271 268 267 265 262 261 261 262 265 266 268 272 275 275 275 276 277 279 283 288 292 294 295 300 306 313 318 322 325 326 326 327 329 331 334 338 342 345 349 351 353 354 354 354
218 219 220 218 216 215 216 216 219 222 223 220 217 215 214 213 213 212 211 211 211 212 213 213 214 216 218 221 225 232 243 253 262 269 272 274 275 275 277 279 279 277 274 274 273 270 267 265 264 267 268 268 271 275 275 274 274 275 278 280 283 287 292 294 297 301 305 310 314 316 319 320 322 324 326 329 333 337 340 343 346 350 351 352 351
219 220 222 222 222 221 221 221 220 220 223 224 223 220 218 216 216 216 215 215 215 217 218 218 219 220 221 223 226 231 239 248 256 261 266 270 273 275 277 279 279 278 277 277 276 274 272 269 268 269 269 269 272 275 274 273 274 274 276 278 280 282 286 290 294 296 299 303 307 310 313 315 318 320 323 325 328 331 333 336 341 345 347 348 348
220 222 223 224 225 225 225 226 225 223 222 226 228 227 223 221 220 219 219 219 219 220 222 223 223 223 224 225 227 230 235 242 249 255 260 265 268 271 275 277 277 277 276 276 275 274 274 273 273 276 275 272 275 280 277 272 272 273 275 276 278 280 282 285 290 294 297 300 303 307 311 314 317 319 321 322 324 325 327 330 334 339 342 343 344
223 224 225 226 227 228 228 229 229 228 226 228 231 232 230 228 225 223 223 223 223 224 225 226 226 226 227 227 229 232 236 241 247 252 255 259 262 265 270 274 277 277 276 276 276 276 277 276 277 280 282 280 282 287 286 277 272 272 274 276 277 279 281 284 288 293 297 300 303 307 311 315 318 320 320 320 320 321 323 325 327 332 336 339 340
225 226 227 228 229 230 231 232 232 232 231 231 232 234 235 235 232 229 227 226 227 227 227 229 229 230 230 230 232 235 238 242 247 251 253 256 258 261 265 270 274 276 276 276 277 278 279 279 280 280 283 286 288 291 294 291 280 274 275 276 277 278 281 285 289 292 297 301 303 306 311 316 319 319 319 318 318 318 319 320 322 325 330 334 336
225 227 228 230 231 232 233 234 234 234 234 235 235 236 237 239 239 236 233 231 231 230 229 231 233 234 235 235 236 237 240 244 248 251 253 255 258 261 264 267 270 272 274 275 275 276 279 281 282 281 283 287 290 291 296 300 293 284 281 280 279 278 281 285 289 293 298 302 305 307 311 315 317 318 318 317 316 316 316 316 317 320 325 329 331
225 226 227 229 231 233 234 235 235 235 236 237 238 238 239 240 242 242 240 238 237 235 233 233 234 236 238 239 239 240 243 246 249 252 254 255 257 260 263 266 268 271 273 274 273 275 278 282 285 286 286 289 291 291 294 298 298 294 292 289 285 282 285 288 288 291 297 303 305 308 310 313 315 316 317 317 316 315 315 314 315 317 320 324 327
226 226 227 229 230 232 234 234 235 236 236 237 239 240 241 242 244 244 244 243 242 241 240 238 237 237 239 240 242 243 245 248 251 252 253 253 254 258 261 264 267 270 272 274 274 275 278 282 286 289 290 291 292 291 291 293 295 296 297 295 290 288 290 290 288 289 296 301 304 306 308 310 312 313 316 317 317 316 315 314 314 315 317 320 323
228 229 229 230 231 232 234 235 236 235 236 239 240 240 241 243 245 247 246 246 245 244 243 243 242 241 241 242 243 244 246 249 252 252 252 251 252 254 258 261 263 267 271 273 274 276 279 282 286 289 291 292 292 290 290 290 291 293 294 294 291 292 295 292 288 289 294 299 301 303 305 308 309 311 314 317 318 318 316 314 313 312 314 317 319
230 231 231 232 234 236 237 238 238 237 237 240 242 242 243 245 247 248 248 248 246 246 245 246 246 246 245 244 245 245 246 248 251 252 253 252 251 252 254 257 260 264 268 270 272 275 278 281 284 286 287 288 289 289 288 288 288 290 292 291 292 296 298 295 291 290 293 296 299 301 304 306 307 310 313 316 319 319 318 316 313 311 311 313 316
232 234 234 235 236 238 239 240 241 240 240 241 243 244 245 247 248 249 250 249 248 247 247 246 246 247 248 247 247 246 246 247 249 251 253 254 253 252 252 255 260 264 266 268 271 274 277 279 281 282 283 284 285 286 287 286 287 289 291 292 294 297 299 297 295 294 293 295 297 300 303 304 305 309 312 315 318 319 318 317 314 311 309 310 312
Height
5933 5933 5933 5933 5933 5934 5934 5934 5935 5935 5936 5936 5936 5936 5936 5936 5936 5937 5937 5937 5938 5938 5938 5939 5939 5939 5940 5941 5941 5942 5942 5942 5942 5943 5943 5944 5944 5944 5944 5944 5944 5944 5944 5944 5944 5944 5943 5943 5943 5943 5943 5943 5943 5942 5942 5942 5941 5941 5941 5940 5940 5940 5939 5939 5939 5938 5937 5937 5936 5936 5935 5934 5933 5933 5932 5931 5930 5929 5928 5927 5925 5924 5922 5921 5920
5934 5934 5934 5934 5935 5935 5936 5936 5937 5937 5937 5938 5938 5938 5938 5938 5938 5939 5939 5939 5939 5939 5940 5940 5940 5941 5942 5942 5943 5943 5944 5944 5944 5945 5945 5945 5946 5945 5946 5946 5946 5946 5946 5946 5945 5945 5945 5945 5945 5945 5945 5944 5944 5944 5943 5943 5943 5942 5942 5942 5942 5941 5941 5940 5940 5939 5939 5938 5938 5937 5936 5936 5935 5934 5933 5932 5931 5930 5929 5927 5926 5925 5923 5922 5920
5935 5936 5936 5936 5937 5937 5937 5938 5938 5939 5939 5939 5939 5940 5939 5939 5940 5940 5941 5941 5941 5941 5942 5942 5942 5943 5943 5944 5944 5945 5946 5946 5946 5946 5947 5947 5947 5947 5947 5948 5948 5948 5948 5947 5947 5947 5947 5947 5946 5946 5946 5946 5946 5945 5945 5945 5944 5944 5944 5943 5943 5943 5942 5942 5941 5940 5940 5940 5939 5939 5938 5937 5936 5935 5934 5933 5932 5931 5929 5928 5927 5926 5924 5922 5921
5937 5937 5937 5938 5938 5939 5939 5939 5940 5940 5940 5941 5941 5941 5941 5941 5941 5942 5943 5943 5943 5943 5943 5944 5944 5945 5945 5946 5946 5946 5947 5948 5948 5949 5949 5949 5949 5949 5949 5949 5950 5949 5949 5949 5949 5949 5948 5948 5948 5948 5948 5948 5947 5947 5946 5946 5946 5945 5945 5945 5944 5944 5943 5943 5942 5942 5941 5941 5940 5940 5939 5938 5937 5936 5935 5934 5933 5932 5930 5929 5928 5926 5925 5923 5922
5938 5938 5939 5939 5940 5940 5941 5941 5941 5942 5942 5942 5942 5943 5943 5943 5943 5943 5944 5945 5945 5945 5945 5946 5946 5946 5947 5947 5947 5948 5949 5950 5950 5950 5951 5951 5950 5950 5951 5951 5951 5951 5951 5950 5950 5950 5950 5950 5950 5950 5949 5949 5949 5948 5948 5948 5947 5947 5946 5946 5946 5945 5945 5944 5944 5943 5943 5942 5942 5941 5940 5939 5938 5937 5936 5935 5934 5933 5931 5930 5929 5927 5926 5924 5923
5940 5940 5940 5941 5942 5942 5942 5943 5943 5943 5943 5943 5944 5944 5945 5945 5945 5945 5945 5946 5947 5947 5947 5947 5948 5948 5948 5949 5949 5950 5951 5951 5952 5952 5952 5952 5952 5952 5952 5952 5952 5952 5952 5952 5952 5952 5952 5952 5952 5951 5951 5950 5950 5950 5950 5949 5949 5948 5948 5947 5947 5947 5946 5946 5945 5945 5944 5944 5943 5942 5941 5940 5939 5938 5937 5936 5935 5933 5932 5931 5930 5928 5927 5925 5923
5941 5941 5942 5942 5943 5943 5944 5944 5944 5945 5945 5945 5945 5946 5946 5946 5946 5946 5947 5948 5948 5949 5949 5949 5949 5950 5950 5950 5951 5951 5952 5953 5954 5954 5954 5954 5954 5954 5953 5953 5953 5953 5953 5953 5953 5953 5953 5953 5953 5952 5952 5952 5952 5951 5951 5951 5950 5950 5949 5949 5949 5948 5947 5947 5947 5946 5946 5945 5944 5943 5942 5941 5940 5939 5938 5937 5936 5934 5933 5932 5930 5929 5927 5925 5924
5942 5942 5943 5943 5944 5944 5945 5945 5945 5946 5946 5946 5946 5947 5947 5948 5948 5948 5948 5949 5950 5950 5950 5950 5951 5951 5951 5952 5952 5953 5954 5955 5955 5955 5955 5955 5955 5955 5955 5955 5954 5954 5954 5954 5954 5955 5955 5954 5954 5954 5954 5954 5953 5953 5953 5952 5952 5951 5951 5950 5950 5949 5949 5949 5948 5948 5947 5946 5945 5944 5943 5942 5941 5940 5939 5938 5937 5935 5934 5933 5931 5929 5928 5926 5924
5943 5943 5944 5944 5945 5946 5946 5946 5946 5947 5947 5947 5948 5948 5949 5949 5949 5949 5950 5950 5951 5952 5952 5952 5952 5952 5953 5953 5954 5954 5955 5956 5956 5957 5957 5957 5956 5956 5956 5956 5956 5956 5956 5956 5956 5956 5956 5956 5955 5955 5955 5955 5955 5955 5954 5954 5953 5953 5952 5952 5951 5951 5950 5950 5949 5949 5948 5947 5946 5945 5944 5943 5942 5941 5940 5939 5938 5936 5935 5933 5932 5930 5928 5927 5925
5943 5944 5945 5945 5946 5946 5947 5947 5947 5947 5948 5948 5949 5949 5950 5950 5951 5951 5951 5952 5953 5953 5953 5953 5953 5953 5954 5954 5955 5955 5956 5957 5958 5958 5958 5958 5958 5957 5957 5957 5957 5957 5957 5957 5957 5957 5957 5957 5957 5957 5957 5957 5956 5956 5956 5955 5955 5955 5954 5953 5953 5953 5952 5951 5951 5950 5949 5948 5947 5946 5945 5944 5943 5942 5941 5940 5939 5937 5936 5934 5933 5931 5929 5927 5925
5944 5945 5945 5946 5947 5947 5948 5948 5948 5948 5949 5949 5950 5950 5951 5951 5952 5952 5953 5953 5953 5953 5954 5954 5955 5955 5955 5955 5956 5957 5957 5958 5959 5959 5959 5959 5959 5959 5958 5959 5959 5959 5959 5959 5959 5959 5958 5958 5958 5958 5958 5958 5958 5958 5958 5957 5957 5957 5956 5956 5955 5955 5954 5953 5952 5951 5950 5949 5949 5948 5946 5945 5944 5943 5942 5941 5939 5938 5937 5935 5934 5932 5930 5928 5926
5945 5946 5946 5947 5947 5948 5949 5949 5949 5950 5950 5950 5951 5951 5952 5952 5952 5953 5954 5954 5954 5954 5955 5955 5956 5956 5956 5956 5957 5958 5958 5959 5960 5960 5960 5960 5960 5960 5960 5960 5960 5960 5960 5960 5960 5960 5960 5960 5960 5960 5960 5960 5960 5960 5960 5959 5959 5958 5958 5957 5957 5956 5955 5955 5954 5953 5952 5951 5950 5949 5948 5947 5946 5945 5943 5942 5941 5939 5938 5936 5934 5933 5931 5929 5927
5946 5946 5947 5947 5948 5949 5949 5950 5950 5950 5951 5951 5951 5952 5952 5952 5953 5954 5954 5955 5955 5955 5955 5956 5956 5956 5957 5957 5958 5959 5959 5960 5960 5961 5961 5961 5961 5961 5961 5961 5962 5961 5961 5962 5962 5961 5961 5961 5961 5962 5962 5962 5961 5961 5961 5961 5961 5960 5960 5959 5958 5958 5957 5956 5955 5954 5953 5952 5951 5950 5949 5948 5947 5946 5944 5943 5942 5940 5939 5937 5935 5934 5932 5930 5927
5946 5947 5948 5948 5949 5950 5950 5951 5951 5951 5951 5951 5952 5952 5953 5953 5954 5954 5954 5955 5955 5956 5956 5957 5957 5957 5958 5958 5959 5959 5960 5961 5961 5962 5962 5962 5962 5962 5962 5963 5963 5963 5963 5963 5963 5963 5963 5963 5963 5963 5963 5963 5963 5963 5963 5962 5962 5962 5961 5961 5960 5959 5959 5958 5957 5956 5955 5954 5953 5952 5950 5949 5948 5947 5946 5944 5943 5941 5940 5938 5936 5934 5932 5930 5928
5947 5948 5948 5949 5950 5950 5951 5951 5951 5952 5952 5952 5952 5953 5953 5953 5954 5955 5955 5955 5956 5956 5957 5957 5958 5958 5958 5959 5960 5960 5961 5961 5962 5962 5963 5963 5963 5963 5963 5964 5964 5964 5964 5964 5965 5965 5965 5965 5965 5965 5965 5965 5965 5965 5964 5964 5963 5963 5963 5962 5962 5961 5960 5959 5959 5957 5956 5955 5954 5953 5952 5951 5949 5948 5947 5946 5944 5943 5941 5939 5937 5935 5933 5931 5929
5948 5949 5949 5950 5950 5951 5952 5952 5952 5952 5953 5953 5953 5953 5953 5954 5955 5955 5956 5956 5957 5957 5957 5958 5958 5959 5959 5960 5960 5961 5961 5962 5963 5963 5963 5964 5964 5964 5965 5965 5965 5966 5966 5966 5967 5967 5967 5967 5967 5967 5967 5966 5966 5966 5966 5965 5965 5964 5964 5964 5963 5963 5962 5961 5960 5959 5958 5957 5955 5954 5953 5952 5951 5950 5948 5947 5945 5944 5942 5940 5938 5936 5934 5932 5930
5948 5949 5950 5950 5951 5951 5952 5953 5953 5953 5953 5953 5953 5954 5954 5955 5955 5956 5956 5957 5957 5958 5958 5959 5959 5960 5960 5960 5961 5961 5962 5963 5963 5964 5964 5965 5965 5966 5966 5966 5967 5967 5968 5968 5969 5969 5969 5969 5969 5969 5968 5968 5968 5968 5967 5967 5966 5966 5966 5965 5965 5964 5963 5962 5961 5960 5959 5958 5957 5956 5955 5954 5952 5951 5950 5948 5947 5945 5943 5941 5939 5937 5935 5933 5930
5949 5950 5950 5951 5951 5952 5953 5954 5954 5954 5954 5954 5954 5954 5955 5955 5956 5957 5957 5958 5958 5958 5958 5959 5960 5961 5961 5961 5962 5962 5963 5964 5964 5965 5965 5966 5967 5967 5967 5967 5968 5968 5969 5970 5970 5971 5971 5971 5971 5970 5970 5970 5970 5969 5969 5968 5968 5967 5967 5966 5966 5965 5964 5964 5963 5962 5961 5960 5958 5957 5956 5955 5954 5952 5951 5949 5947 5946 5943 5941 5939 5937 5936 5933 5931
5950 5950 5951 5951 5952 5953 5954 5954 5955 5955 5955 5955 5955 5955 5956 5956 5957 5957 5958 5958 5959 5959 5959 5960 5961 5961 5962 5962 5963 5964 5964 5965 5965 5966 5966 5967 5968 5968 5968 5969 5969 5970 5970 5971 5972 5972 5972 5972 5972 5972 5972 5972 5971 5971 5971 5970 5969 5969 5968 5968 5967 5966 5966 5965 5964 5963 5962 5961 5960 5959 5957 5956 5955 5953 5952 5950 5948 5946 5944 5942 5940 5938 5936 5934 5932
5950 5951 5951 5952 5952 5953 5954 5955 5956 5956 5956 5956 5956 5956 5957 5957 5957 5958 5958 5959 5959 5959 5960 5960 5961 5962 5962 5963 5964 5964 5965 5966 5967 5967 5968 5968 5969 5969 5970 5970 5971 5971 5972 5973 5973 5973 5974 5974 5974 5974 5974 5973 5973 5973 5972 5971 5971 5970 5970 5969 5968 5968 5967 5966 5965 5964 5963 5962 5961 5960 5959 5957 5956 5954 5953 5951 5949 5947 5945 5943 5941 5939 5937 5935 5933
5951 5951 5952 5953 5953 5954 5954 5955 5956 5957 5957 5957 5957 5957 5957 5957 5958 5958 5959 5959 5960 5960 5961 5961 5962 5962 5963 5964 5964 5965 5966 5967 5968 5968 5969 5970 5970 5971 5971 5971 5972 5973 5973 5974 5974 5975 5975 5975 5976 5975 5975 5975 5974 5974 5973 5972 5972 5971 5971 5970 5970 5969 5968 5967 5966 5966 5965 5964 5962 5961 5960 5958 5957 5955 5953 5952 5950 5948 5946 5944 5942 5940 5938 5936 5934
5951 5952 5952 5953 5953 5954 5954 5955 5956 5957 5957 5957 5957 5958 5958 5958 5958 5959 5959 5960 5960 5961 5961 5962 5962 5962 5963 5964 5965 5966 5966 5967 5969 5969 5970 5971 5971 5972 5972 5972 5973 5974 5975 5975 5976 5976 5976 5976 5977 5976 5976 5976 5975 5975 5974 5973 5973 5972 5972 5971 5970 5969 5969 5968 5968 5967 5966 5965 5964 5963 5961 5960 5958 5956 5955 5953 5951 5949 5947 5945 5943 5941 5939 5937 5934
5951 5951 5952 5953 5953 5954 5954 5955 5956 5957 5958 5958 5958 5958 5958 5959 5959 5959 5960 5960 5961 5962 5962 5962 5963 5963 5964 5965 5966 5966 5967 5968 5969 5970 5971 5971 5972 5973 5973 5974 5974 5975 5976 5976 5976 5977 5977 5977 5977 5977 5977 5977 5976 5976 5975 5974 5974 5973 5972 5972 5971 5970 5970 5970 5969 5968 5967 5966 5965 5964 5962 5961 5959 5957 5956 5954 5952 5950 5948 5946 5944 5942 5939 5937 5935
5950 5951 5951 5952 5953 5954 5954 5955 5956 5957 5958 5958 5958 5958 5959 5959 5960 5960 5961 5961 5962 5962 5963 5963 5964 5964 5965 5966 5967 5967 5968 5969 5970 5970 5971 5972 5973 5973 5974 5974 5975 5976 5977 5977 5977 5977 5978 5978 5978 5978 5978 5978 5977 5977 5976 5975 5975 5974 5973 5972 5972 5971 5971 5971 5971 5969 5968 5967 5966 5965 5963 5962 5960 5959 5957 5955 5953 5951 5949 5947 5945 5943 5940 5938 5936
5949 5950 5951 5952 5953 5954 5954 5955 5956 5957 5957 5958 5958 5958 5959 5960 5960 5961 5961 5962 5962 5963 5963 5964 5965 5965 5966 5967 5968 5968 5969 5970 5971 5971 5972 5973 5974 5974 5975 5975 5976 5977 5977 5978 5978 5978 5979 5979 5979 5979 5979 5978 5978 5977 5976 5976 5975 5975 5974 5973 5973 5972 5972 5972 5972 5970 5969 5967 5966 5965 5964 5963 5962 5960 5958 5956 5954 5952 5950 5948 5946 5943 5941 5939 5938
5950 5950 5951 5952 5953 5954 5954 5955 5956 5956 5957 5958 5958 5959 5959 5960 5960 5961 5962 5962 5963 5963 5964 5964 5965 5966 5967 5968 5968 5969 5970 5971 5971 5972 5973 5974 5974 5975 5975 5976 5976 5977 5978 5978 5979 5979 5979 5979 5979 5979 5979 5979 5978 5977 5977 5976 5976 5975 5974 5974 5973 5973 5973 5973 5972 5971 5969 5968 5967 5966 5965 5964 5962 5961 5959 5957 5955 5953 5951 5949 5946 5944 5942 5941 5939
5950 5951 5951 5952 5953 5954 5954 5955 5956 5956 5957 5957 5958 5959 5960 5960 5961 5961 5962 5963 5963 5963 5964 5964 5965 5966 5967 5968 5969 5970 5970 5971 5972 5972 5973 5974 5975 5975 5975 5976 5977 5977 5978 5979 5979 5979 5979 5979 5979 5979 5979 5979 5978 5978 5977 5977 5976 5976 5975 5974 5974 5973 5973 5973 5973 5971 5970 5969 5968 5967 5966 5965 5963 5961 5960 5958 5956 5953 5951 5949 5947 5946 5944 5942 5939
5950 5951 5952 5952 5953 5954 5955 5955 5956 5956 5957 5957 5958 5959 5960 5961 5961 5962 5962 5963 5963 5964 5964 5965 5965 5966 5967 5968 5969 5970 5971 5972 5972 5972 5973 5974 5975 5975 5976 5976 5977 5978 5978 5979 5979 5979 5979 5979 5979 5979 5979 5979 5979 5978 5977 5977 5977 5976 5975 5974 5974 5974 5974 5974 5973 5972 5970 5969 5968 5967 5967 5965 5964 5962 5960 5958 5956 5954 5952 5950 5948 5947 5945 5942 5940
5950 5951 5952 5953 5953 5954 5955 5955 5956 5956 5957 5957 5958 5959 5960 5960 5961 5962 5963 5963 5964 5964 5964 5965 5966 5967 5968 5968 5969 5970 5971 5972 5972 5973 5973 5974 5974 5975 5976 5976 5977 5977 5978 5979 5979 5979 5979 5979 5979 5979 5979 5979 5978 5978 5977 5977 5977 5976 5975 5974 5974 5974 5974 5974 5974 5972 5971 5969 5968 5968 5967 5966 5965 5963 5961 5959 5957 5955 5953 5951 5949 5947 5945 5942 5940
5950 5950 5951 5952 5953 5954 5955 5955 5956 5956 5957 5957 5958 5958 5959 5960 5961 5962 5962 5963 5964 5964 5965 5965 5966 5967 5968 5969 5969 5970 5971 5971 5972 5973 5974 5974 5974 5975 5976 5976 5977 5977 5978 5978 5978 5978 5979 5979 5979 5979 5979 5979 5978 5978 5977 5977 5976 5976 5975 5974 5974 5974 5974 5974 5974 5972 5971 5970 5969 5968 5967 5966 5965 5963 5961 5959 5957 5956 5954 5952 5950 5948 5945 5943 5940
5949 5950 5951 5952 5953 5954 5954 5955 5956 5956 5956 5957 5957 5958 5959 5960 5960 5961 5962 5963 5964 5964 5965 5966 5966 5967 5968 5969 5969 5970 5970 5971 5972 5973 5974 5974 5974 5975 5975 5976 5976 5977 5977 5977 5978 5978 5978 5978 5978 5978 5978 5978 5978 5977 5977 5977 5976 5976 5975 5974 5974 5974 5974 5974 5973 5972 5971 5970 5969 5968 5967 5966 5965 5964 5962 5960 5958 5956 5954 5952 5950 5948 5945 5943 5941
5949 5949 5950 5951 5952 5953 5954 5955 5955 5955 5956 5956 5957 5957 5958 5959 5960 5961 5961 5962 5963 5964 5965 5966 5966 5967 5968 5969 5969 5970 5970 5971 5972 5972 5973 5973 5974 5974 5975 5975 5976 5976 5977 5977 5977 5978 5978 5978 5978 5978 5978 5978 5977 5977 5977 5976 5976 5976 5975 5974 5974 5974 5974 5974 5973 5972 5971 5970 5969 5968 5967 5966 5965 5963 5962 5960 5958 5956 5954 5952 5950 5948 5945 5943 5941
5948 5949 5949 5950 5951 5952 5953 5954 5954 5955 5956 5956 5957 5957 5958 5959 5959 5960 5961 5962 5963 5963 5964 5965 5966 5967 5968 5968 5969 5970 5970 5971 5971 5972 5972 5973 5973 5974 5974 5974 5975 5976 5976 5977 5977 5977 5977 5977 5977 5977 5977 5977 5977 5977 5976 5976 5976 5976 5975 5974 5974 5973 5973 5973 5972 5971 5971 5970 5969 5968 5967 5966 5965 5963 5962 5960 5958 5956 5954 5952 5950 5948 5946 5943 5941
5947 5948 5949 5949 5950 5951 5952 5953 5954 5954 5955 5956 5956 5957 5957 5958 5959 5960 5961 5961 5962 5963 5964 5965 5966 5967 5967 5968 5969 5969 5970 5971 5971 5972 5972 5972 5973 5973 5973 5974 5974 5975 5975 5976 5976 5976 5976 5976 5976 5976 5976 5976 5976 5976 5976 5975 5975 5975 5975 5974 5973 5973 5972 5972 5972 5971 5971 5970 5969 5968 5967 5966 5964 5963 5961 5960 5958 5956 5954 5952 5950 5948 5946 5944 5941
5946 5947 5948 5948 5949 5950 5950 5951 5952 5953 5954 5955 5956 5956 5957 5958 5958 5959 5960 5961 5962 5962 5963 5964 5965 5966 5967 5968 5968 5969 5970 5970 5971 5971 5972 5972 5972 5972 5973 5973 5973 5974 5974 5974 5975 5975 5975 5975 5975 5975 5975 5976 5976 5976 5975 5975 5975 5974 5974 5973 5973 5972 5972 5971 5971 5971 5970 5969 5969 5968 5966 5965 5964 5962 5961 5960 5958 5956 5954 5952 5950 5948 5946 5944 5941
5945 5946 5947 5948 5948 5949 5949 5950 5951 5952 5953 5954 5955 5956 5956 5957 5958 5959 5960 5961 5961 5962 5963 5964 5964 5965 5966 5967 5968 5969 5969 5970 5970 5971 5971 5971 5972 5972 5972 5972 5972 5973 5973 5973 5974 5974 5974 5974 5974 5974 5974 5974 5975 5975 5975 5974 5974 5973 5973 5973 5972 5972 5971 5971 5970 5970 5969 5969 5968 5967 5966 5964 5963 5962 5961 5960 5958 5956 5955 5953 5951 5948 5946 5944 5941
5943 5944 5946 5947 5948 5948 5948 5949 5949 5950 5951 5953 5954 5955 5956 5957 5957 5958 5959 5960 5961 5962 5962 5963 5964 5964 5965 5966 5967 5968 5968 5969 5969 5970 5970 5971 5971 5971 5971 5972 5972 5972 5973 5973 5973 5973 5973 5973 5973 5973 5973 5973 5973 5974 5974 5974 5973 5972 5972 5972 5972 5971 5970 5970 5969 5969 5969 5968 5967 5966 5965 5964 5963 5962 5961 5959 5958 5956 5955 5953 5951 5948 5946 5944 5941
5940 5941 5943 5945 5946 5947 5947 5948 5948 5949 5950 5951 5952 5954 5955 5956 5957 5958 5959 5960 5960 5961 5962 5962 5963 5964 5964 5965 5966 5967 5968 5968 5968 5969 5969 5970 5970 5970 5971 5971 5971 5972 5972 5972 5972 5972 5972 5971 5971 5971 5971 5972 5972 5972 5972 5972 5972 5971 5970 5970 5970 5970 5969 5968 5968 5968 5968 5967 5966 5965 5965 5964 5963 5962 5960 5959 5957 5956 5954 5952 5950 5948 5946 5943 5941
5937 5939 5941 5942 5944 5945 5946 5947 5947 5948 5949 5950 5951 5952 5954 5955 5956 5957 5958 5958 5959 5960 5961 5961 5962 5963 5964 5965 5965 5966 5967 5967 5968 5968 5968 5969 5969 5969 5970 5970 5970 5970 5970 5970 5970 5971 5971 5970 5970 5970 5970 5970 5970 5971 5971 5971 5970 5970 5969 5969 5968 5968 5968 5967 5966 5966 5966 5965 5965 5964 5964 5963 5962 5961 5959 5958 5956 5955 5953 5951 5949 5947 5945 5943 5940
5935 5937 5938 5940 5941 5942 5944 5945 5946 5947 5949 5949 5950 5951 5952 5954 5955 5956 5956 5957 5958 5959 5959 5960 5961 5962 5963 5964 5964 5965 5965 5966 5967 5967 5968 5968 5968 5968 5968 5968 5969 5969 5969 5969 5969 5969 5969 5969 5969 5969 5969 5969 5969 5969 5969 5969 5969 5969 5968 5968 5967 5966 5966 5966 5965 5964 5963 5963 5963 5962 5962 5962 5961 5959 5958 5957 5955 5953 5952 5950 5948 5947 5945 5942 5940
5932 5934 5936 5938 5939 5941 5942 5943 5944 5946 5947 5948 5949 5950 5951 5952 5953 5954 5955 5956 5957 5957 5958 5959 5960 5961 5961 5962 5963 5963 5964 5965 5965 5966 5966 5966 5967 5966 5966 5966 5967 5967 5967 5967 5967 5967 5967 5967 5967 5967 5967 5968 5967 5967 5967 5967 5967 5967 5966 5966 5965 5964 5964 5964 5963 5962 5961 5961 5961 5961 5960 5960 5959 5958 5956 5955 5953 5952 5950 5949 5947 5945 5944 5942 5939
5929 5931 5933 5935 5937 5939 5940 5941 5942 5944 5945 5946 5947 5948 5949 5950 5951 5952 5953 5954 5955 5956 5957 5958 5959 5959 5960 5961 5961 5962 5963 5963 5964 5964 5965 5965 5965 5965 5964 5964 5965 5965 5965 5965 5965 5965 5965 5966 5965 5965 5965 5966 5965 5965 5965 5965 5965 5965 5964 5964 5964 5963 5962 5962 5961 5961 5960 5959 5959 5959 5959 5958 5957 5956 5954 5953 5952 5950 5949 5947 5946 5944 5943 5941 5939
5926 5928 5930 5932 5935 5937 5938 5939 5941 5942 5944 5944 5945 5946 5947 5948 5949 5950 5951 5952 5953 5955 5956 5956 5957 5958 5958 5959 5959 5960 5961 5962 5962 5963 5963 5963 5963 5963 5963 5962 5963 5963 5963 5963 5963 5963 5963 5963 5963 5963 5963 5963 5962 5962 5962 5963 5963 5963 5962 5962 5962 5961 5960 5960 5959 5959 5958 5957 5957 5957 5957 5956 5955 5954 5952 5951 5950 5949 5947 5946 5944 5943 5942 5940 5938
5923 5924 5927 5929 5931 5933 5935 5937 5938 5940 5942 5942 5943 5944 5945 5946 5947 5948 5949 5950 5951 5953 5954 5955 5956 5956 5957 5957 5958 5959 5959 5960 5960 5960 5961 5961 5961 5961 5961 5961 5961 5961 5961 5961 5960 5960 5961 5961 5961 5961 5961 5961 5960 5959 5960 5960 5960 5960 5960 5960 5959 5959 5958 5958 5958 5957 5957 5956 5955 5955 5954 5954 5953 5952 5950 5949 5948 5947 5946 5944 5943 5942 5940 5939 5937
5919 5921 5923 5926 5928 5930 5932 5934 5936 5937 5939 5940 5940 5941 5942 5943 5944 5945 5946 5948 5949 5950 5952 5953 5954 5955 5955 5956 5956 5957 5957 5958 5958 5958 5958 5958 5958 5959 5959 5959 5959 5959 5959 5959 5959 5958 5959 5959 5959 5959 5958 5958 5958 5957 5957 5958 5958 5958 5957 5957 5957 5957 5956 5956 5956 5956 5955 5954 5953 5953 5952 5951 5951 5950 5948 5947 5946 5945 5944 5943 5941 5940 5939 5938 5936
5916 5918 5920 5922 5924 5926 5928 5930 5932 5934 5935 5937 5938 5939 5940 5940 5941 5942 5944 5945 5946 5948 5949 5951 5952 5953 5953 5954 5955 5955 5955 5955 5955 5955 5955 5955 5956 5956 5956 5957 5956 5956 5956 5957 5957 5956 5956 5957 5957 5957 5956 5956 5956 5956 5955 5955 5956 5955 5955 5955 5955 5954 5954 5954 5954 5954 5954 5953 5952 5951 5950 5949 5948 5947 5946 5945 5944 5943 5942 5941 5940 5938 5937 5936 5935
5913 5915 5916 5918 5920 5922 5924 5926 5928 5930 5932 5933 5934 5935 5936 5937 5938 5939 5941 5942 5944 5945 5947 5948 5949 5950 5951 5952 5953 5953 5953 5953 5953 5953 5953 5953 5953 5953 5954 5954 5954 5954 5954 5954 5954 5954 5955 5955 5955 5955 5955 5954 5954 5954 5953 5953 5953 5953 5952 5953 5952 5952 5952 5952 5951 5951 5951 5951 5950 5948 5948 5946 5945 5944 5944 5943 5942 5941 5940 5939 5938 5937 5935 5934 5933
5909 5910 5912 5914 5916 5918 5919 5922 5924 5927 5929 5930 5931 5932 5933 5933 5934 5935 5937 5939 5941 5942 5943 5945 5946 5947 5948 5949 5950 5950 5950 5950 5950 5950 5949 5950 5950 5951 5951 5951 5951 5951 5952 5952 5952 5952 5953 5953 5953 5953 5953 5952 5952 5952 5952 5951 5951 5950 5950 5950 5950 5949 5949 5949 5949 5948 5947 5948 5947 5946 5945 5944 5942 5942 5941 5941 5940 5939 5938 5937 5936 5935 5934 5932 5931
5905 5907 5909 5911 5912 5914 5915 5918 5921 5923 5925 5926 5927 5928 5929 5929 5930 5931 5934 5936 5938 5939 5940 5941 5943 5944 5945 5946 5946 5946 5947 5947 5946 5946 5946 5946 5947 5948 5948 5948 5949 5949 5949 5949 5949 5950 5951 5951 5951 5951 5951 5950 5949 5949 5949 5949 5948 5948 5948 5948 5947 5946 5946 5947 5946 5945 5945 5945 5944 5943 5943 5942 5941 5939 5939 5938 5937 5936 5936 5935 5933 5932 5931 5930 5929
5903 5904 5906 5908 5909 5911 5913 5915 5917 5920 5921 5922 5923 5924 5925 5925 5926 5928 5930 5932 5934 5936 5937 5938 5939 5941 5941 5942 5942 5943 5943 5943 5942 5942 5942 5943 5944 5945 5945 5946 5946 5947 5947 5946 5947 5949 5949 5949 5949 5949 5948 5948 5947 5946 5946 5946 5945 5945 5945 5945 5944 5944 5944 5944 5943 5943 5943 5942 5941 5940 5940 5940 5938 5937 5936 5935 5935 5934 5933 5932 5931 5930 5929 5928 5927
5901 5902 5904 5906 5907 5909 5911 5913 5914 5916 5918 5919 5919 5920 5921 5922 5923 5924 5925 5927 5930 5932 5933 5934 5936 5937 5937 5938 5938 5939 5940 5939 5938 5938 5938 5939 5940 5942 5942 5943 5945 5945 5945 5944 5945 5947 5947 5947 5947 5946 5946 5945 5944 5944 5944 5943 5943 5943 5943 5943 5942 5942 5942 5941 5941 5941 5941 5941 5939 5938 5938 5937 5936 5935 5934 5933 5932 5931 5930 5929 5928 5927 5926 5925 5924